User: anonymous   Login
Location: Caltech
(34.1382°N, 118.1253°W)
Time: 13:39:04
(UTC-07:00)
Language:

Saudisat 1A - Orbit

View from above orbital plane
View from above orbital plane
View from above satellite
View from above satellite

Ground track
Ground track

The orbit data is extracted from the following two-line orbital elements,

1 26546U 00057B   15142.13837982  .00001140  00000-0  13477-3 0  9990
2 26546 064.5541 183.3934 0028825 316.6028 043.2811 14.89485854793859
Epoch (UTC): 22 May 2015 03:19:16
Eccentricity: 0.0028825
inclination: 64.5541°
perigee height: 579 km
apogee height: 619 km
right ascension of ascending node: 183.3934°
argument of perigee: 316.6028°
revolutions per day: 14.89485854
mean anomaly at epoch: 43.2811°
orbit number at epoch: 79385

The dashed part of the orbit path shows where the satellite is in the earth's shadow,  

DLR